Date String (YYYY-MM-DD hh:mm:ss) UTC,Instrument flags,Ambient pressure (hPa),Sample flow (lpm),Bypass flow (lpm),Sample temperature (°C),Ambient temperature (°C),ASC tube jacket temperature (°C),LED temperature (°C),Box temperature (°C),Sample RH (%),Span deviation,Mass concentration (μg/m³),Mass concentration (μg/m³),Mass concentration (μg/m³)
DateTimeUTC,F1_M11,P_M11,Q1_M11,Q2_M11,T1_M11,T2_M11,T3_M11,T4_M11,T5_M11,U1_M11,ZSPAN_M11,X0_M11,X2_M11,X1_M11
2023-01-29 16:00:00,,0823.9,4.99,0.00,22.6,21.9,00.0,31.5,24.4,05.0,0000.0,0008.05,0004.39,0003.89
2023-01-29 16:01:00,,0824.0,5.00,0.00,22.7,22.8,00.0,31.4,24.7,05.0,0000.0,0008.04,0004.39,0003.91
2023-01-29 16:02:00,,0823.9,4.99,0.00,22.8,23.0,00.0,31.5,24.8,05.0,0000.0,0008.10,0004.42,0003.92
2023-01-29 16:03:00,,0823.9,4.99,0.00,22.8,22.5,00.0,31.5,24.7,05.0,0000.0,0008.05,0004.42,0003.93
2023-01-29 16:04:00,,0823.9,5.01,0.00,22.8,22.0,00.0,31.5,24.5,05.0,0000.0,0008.00,0004.40,0003.92
2023-01-29 16:05:00,,0823.9,4.99,0.00,22.8,21.6,00.0,31.6,24.4,04.9,0000.0,0007.99,0004.41,0003.93
2023-01-29 16:06:00,,0824.0,5.01,0.00,22.7,21.3,00.0,31.6,24.3,05.0,0000.0,0007.47,0004.40,0003.93
2023-01-29 16:07:00,,0824.0,4.99,0.00,22.7,21.1,00.0,31.5,24.3,05.0,0000.0,0007.38,0004.40,0003.93
2023-01-29 16:08:00,,0824.0,5.00,0.00,22.6,20.9,00.0,31.5,24.2,05.0,-000.3,0007.28,0004.40,0003.94
2023-01-29 16:09:00,,0824.0,5.00,0.00,22.6,21.3,00.0,31.5,24.3,05.0,-002.3,0007.23,0004.42,0003.95
2023-01-29 16:10:00,,0824.0,5.00,0.00,22.7,22.3,00.0,31.5,24.6,05.0,-002.8,0007.20,0004.42,0003.95
2023-01-29 16:11:00,,0824.0,4.99,0.00,22.8,23.1,00.0,31.5,24.8,05.0,-002.0,0007.02,0004.39,0003.95
2023-01-29 16:12:00,,0824.0,5.01,0.00,22.9,22.8,00.0,31.5,24.8,05.0,-001.9,0007.23,0004.43,0003.96
2023-01-29 16:13:00,,0824.0,5.00,0.00,22.9,22.3,00.0,31.6,24.6,05.0,-000.5,0007.36,0004.45,0003.97
2023-01-29 16:14:00,,0824.0,5.01,0.00,22.8,21.9,00.0,31.6,24.5,05.0,-000.9,0007.46,0004.47,0003.97
2023-01-29 16:15:00,,0824.0,5.00,0.00,22.8,21.5,00.0,31.6,24.4,05.1,0000.0,0007.48,0004.48,0003.97
2023-01-29 16:16:00,,0824.0,5.00,0.00,22.7,21.3,00.0,31.6,24.3,05.1,0000.0,0007.54,0004.49,0003.97
2023-01-29 16:17:00,,0824.0,5.02,0.00,22.7,21.1,00.0,31.6,24.3,05.1,0000.0,0007.48,0004.48,0003.98
2023-01-29 16:18:00,,0824.0,4.99,0.00,22.6,20.9,00.0,31.6,24.2,05.2,0000.0,0007.39,0004.48,0003.99
2023-01-29 16:19:00,,0823.9,5.03,0.00,22.6,20.8,00.0,31.5,24.2,05.2,0000.0,0007.46,0004.48,0004.00
2023-01-29 16:20:00,,0824.0,5.00,0.00,22.6,21.5,00.0,31.5,24.3,05.2,0000.0,0007.71,0004.49,0004.00
2023-01-29 16:21:00,,0824.0,5.01,0.00,22.7,22.5,00.0,31.5,24.6,05.2,0000.0,0008.58,0004.49,0004.01
2023-01-29 16:22:00,,0824.0,5.00,0.00,22.8,23.3,00.0,31.5,24.8,05.1,0000.0,0008.63,0004.51,0004.01
2023-01-29 16:23:00,,0824.0,5.00,0.00,22.9,23.2,00.0,31.6,24.9,05.1,0000.0,0008.52,0004.47,0004.00
2023-01-29 16:24:00,,0824.1,5.01,0.00,22.9,22.6,00.0,31.6,24.8,05.2,0000.0,0008.40,0004.44,0003.98
2023-01-29 16:25:00,,0824.1,5.01,0.00,22.9,22.1,00.0,31.6,24.6,05.2,0000.0,0008.31,0004.41,0003.97
2023-01-29 16:26:00,,0824.1,5.02,0.00,22.8,21.7,00.0,31.6,24.5,05.2,0000.0,0008.37,0004.42,0003.96
2023-01-29 16:27:00,,0824.1,4.98,0.00,22.8,21.4,00.0,31.6,24.5,05.2,0000.0,0008.35,0004.41,0003.95
2023-01-29 16:28:00,,0824.0,4.94,0.00,22.8,21.3,00.0,31.6,24.4,05.2,0000.0,0008.36,0004.41,0003.96
2023-01-29 16:29:00,,0824.0,5.01,0.00,22.7,21.0,00.0,31.6,24.3,05.3,0000.0,0008.35,0004.41,0003.96
2023-01-29 16:30:00,,0824.1,4.99,0.00,22.7,20.8,00.0,31.6,24.2,05.3,0000.0,0008.37,0004.42,0003.96
2023-01-29 16:31:00,,0824.1,5.01,0.00,22.6,21.4,00.0,31.6,24.3,05.3,0000.0,0008.39,0004.42,0003.95
2023-01-29 16:32:00,,0824.1,5.00,0.00,22.8,22.4,00.0,31.5,24.6,05.3,0000.0,0008.19,0004.40,0003.94
2023-01-29 16:33:00,,0824.1,4.99,0.00,22.9,23.1,00.0,31.5,24.8,05.3,0000.0,0007.33,0004.39,0003.92
2023-01-29 16:34:00,,0824.1,5.00,0.00,22.9,22.9,00.0,31.6,24.8,05.3,0000.0,0007.22,0004.38,0003.92
2023-01-29 16:35:00,,0824.1,5.03,0.00,22.9,22.3,00.0,31.6,24.7,05.3,0000.0,0007.30,0004.41,0003.93
2023-01-29 16:36:00,,0824.1,4.98,0.00,22.9,21.9,00.0,31.6,24.6,05.3,0000.0,0007.45,0004.46,0003.94
2023-01-29 16:37:00,,0824.1,5.00,0.00,22.8,21.6,00.0,31.6,24.4,05.3,0000.0,0007.46,0004.46,0003.95
2023-01-29 16:38:00,,0824.0,5.01,0.00,22.8,21.3,00.0,31.6,24.3,05.3,0000.0,0007.31,0004.43,0003.95
2023-01-29 16:39:00,,0824.1,5.00,0.00,22.7,21.1,00.0,31.6,24.3,05.4,0000.0,0007.11,0004.41,0003.95
2023-01-29 16:40:00,,0824.1,5.00,0.00,22.7,20.9,00.0,31.6,24.2,05.4,0000.0,0007.08,0004.40,0003.94
2023-01-29 16:41:00,,0824.1,5.00,0.00,22.7,21.3,00.0,31.6,24.3,05.4,0000.0,0006.96,0004.37,0003.93
2023-01-29 16:42:00,,0824.0,5.02,0.00,22.7,22.3,00.0,31.5,24.6,05.3,0000.0,0006.96,0004.38,0003.94
2023-01-29 16:43:00,,0824.1,4.99,0.00,22.9,23.2,00.0,31.5,24.8,05.3,0000.0,0006.89,0004.36,0003.94
2023-01-29 16:44:00,,0824.1,5.01,0.00,22.9,23.0,00.0,31.6,24.9,05.3,0000.0,0006.76,0004.34,0003.93
2023-01-29 16:45:00,,0824.1,4.99,0.00,22.9,22.5,00.0,31.6,24.8,05.2,0000.0,0006.71,0004.36,0003.92
2023-01-29 16:46:00,,0824.1,5.01,0.00,22.9,22.0,00.0,31.7,24.6,05.2,0000.0,0006.71,0004.34,0003.91
2023-01-29 16:47:00,,0824.1,5.00,0.00,22.8,21.7,00.0,31.7,24.5,05.2,0000.0,0006.55,0004.30,0003.90
2023-01-29 16:48:00,,0824.1,5.01,0.00,22.8,21.4,00.0,31.7,24.4,05.2,0000.0,0006.39,0004.26,0003.89
2023-01-29 16:49:00,,0824.1,5.00,0.00,22.8,21.2,00.0,31.7,24.3,05.2,0000.0,0006.46,0004.25,0003.87
2023-01-29 16:50:00,,0824.1,5.01,0.00,22.7,21.0,00.0,31.6,24.3,05.2,0000.0,0007.09,0004.25,0003.87
2023-01-29 16:51:00,,0824.1,5.01,0.00,22.7,20.9,00.0,31.6,24.2,05.2,0000.0,0007.47,0004.26,0003.87
2023-01-29 16:52:00,,0824.1,5.01,0.00,22.7,21.6,00.0,31.6,24.4,05.2,0000.0,0007.50,0004.26,0003.86
2023-01-29 16:53:00,,0824.1,5.00,0.00,22.8,22.6,00.0,31.6,24.7,05.2,0000.0,0007.55,0004.26,0003.85
2023-01-29 16:54:00,,0824.1,4.99,0.00,22.9,23.2,00.0,31.6,24.9,05.2,0000.0,0007.51,0004.24,0003.84
2023-01-29 16:55:00,,0824.1,5.00,0.00,22.9,22.7,00.0,31.6,24.8,05.2,0000.0,0007.69,0004.27,0003.85
2023-01-29 16:56:00,,0824.1,5.01,0.00,22.9,22.2,00.0,31.7,24.7,05.2,0000.0,0007.67,0004.26,0003.85
2023-01-29 16:57:00,,0824.2,5.00,0.00,22.9,21.8,00.0,31.7,24.6,05.2,0000.0,0007.88,0004.27,0003.86
2023-01-29 16:58:00,,0824.1,4.99,0.00,22.8,21.5,00.0,31.7,24.5,05.2,0000.0,0007.99,0004.27,0003.86
2023-01-29 16:59:00,,0824.1,5.01,0.00,22.8,21.3,00.0,31.7,24.4,05.2,0000.0,0008.07,0004.30,0003.87
